Vertical_Velocity
-2 1 -3 0 1 -2 -2 -4 -0 -2 6 1 -3 -0 10 5 3 1 -1 1 -9 -1 1 2 3 3 -4 2 -2 -2 5 7 5 7 1 -2 -0 -2 0 -6 -8 -8 -5 -1 3 1 -12 -3 11 2 -7 4 -2 -2
-2 1 -3 2 -2 -2 1 1 -5 -3 5 0 2 8 6 5 5 9 6 1 20 1 -2 -0 -4 -3 -5 -4 0 4 -2 -1 -3 0 1 -1 1 2 -4 -1 5 7 -12 -11 -12 -16 -3 5 -3 -5 -2 -2 -2 0
-2 -2 2 -2 1 -2 -3 1 -4 -4 -0 1 1 -2 -2 -4 1 3 2 9 7 1 -5 -0 -4 -0 1 4 8 9 6 -3 -2 2 0 -0 -3 1 -1 -2 1 3 1 0 -2 -3 -3 -2 2 7 -5 -3 -2 -2
1 -2 -4 3 -0 2 -3 -2 -1 2 -8 -5 -0 -1 -2 2 -2 8 -8 2 3 1 2 1 -7 7 -5 2 -3 7 21 2 -6 3 -1 -1 -2 -0 0 -4 -4 -3 1 -3 -1 -2 7 0 -1 -0 1 5 -1 2
1 1 -1 -6 2 0 4 -3 2 3 7 10 3 1 -0 1 2 19 7 -3 9 -10 0 2 1 -13 4 4 5 -0 7 -6 -0 -0 -1 -0 0 -6 -0 -3 0 -2 -5 -4 -7 -6 -5 -3 -3 -2 -5 -3 -0 -1
1 0 1 0 -3 1 -3 4 -4 -1 2 -0 8 17 3 11 12 5 -6 -3 2 15 -7 2 -6 -5 -0 -6 19 2 12 3 -1 -4 1 2 -8 -0 -2 -1 -4 2 3 -5 -2 2 1 -5 -1 -5 -5 -2 2 3
0 1 0 1 -2 1 1 -4 4 2 -7 -8 6 7 -1 -4 16 1 -2 -11 -6 11 -7 2 3 -2 -7 1 -1 -3 -2 0 -4 1 -0 -2 1 -3 0 -1 -1 -3 -0 -0 -3 -2 3 6 -2 -1 1 -1 -7 -1
-0 1 1 1 2 -1 2 -1 -2 8 -1 -1 -15 -3 11 10 8 4 -7 11 6 -4 -5 0 2 1 -2 0 -2 -4 -5 -4 -1 -1 3 -0 5 -1 0 -2 3 1 -2 1 1 -1 -7 -3 -3 -6 0 11 -3 -3
-3 -1 -1 0 1 2 0 3 1 -3 8 -2 2 -13 -2 -14 -8 -2 -3 1 -4 2 -1 1 -2 3 -5 -0 -1 -1 -2 -3 -1 -1 -0 -4 2 -1 -4 -2 -1 -0 -6 -5 2 -3 8 1 -1 3 -0 1 -0 -5
1 -1 -1 -1 -1 1 3 2 -0 7 -3 -0 1 -1 8 -12 -5 -5 2 1 1 -3 -1 0 -0 0 1 -0 2 -2 0 -0 -0 4 -4 -1 -1 -2 2 3 -3 -4 -3 -1 -0 6 4 1 -1 4 0 1 2 -2
-0 -2 -3 -1 0 -2 -1 1 2 0 23 17 9 1 4 2 -0 6 1 2 2 1 -0 2 0 -1 -6 -2 0 -1 1 -1 -1 2 -3 1 4 -0 6 6 3 -1 -2 -1 10 9 10 5 5 2 -2 -1 2 -3
-1 -2 -3 -4 -3 1 -2 -1 1 -5 -3 2 -3 -1 6 10 0 -3 0 -1 -1 2 1 -1 2 1 -1 -3 -3 -1 -1 1 1 -1 1 1 1 -1 0 -1 -1 -5 -2 -0 1 -0 -1 0 -2 -5 -4 4 4 6
-1 -1 -0 -2 -3 -4 -1 0 2 2 -2 -3 -1 -2 -2 -2 -3 2 -0 1 -1 1 2 2 3 -6 -1 1 -1 -1 -1 2 2 1 -2 -2 1 6 -1 -0 1 0 1 0 -1 -1 -2 -2 -2 -2 7 1 2 -5
0 -0 -2 -1 -2 -4 -4 -3 -2 -4 1 -4 0 -2 2 -0 1 2 2 2 2 1 1 -1 0 -2 1 -3 0 -3 4 1 2 1 -2 2 1 -0 -1 0 -2 2 1 -1 -2 0 -2 -3 -4 -1 1 0 1 1
-2 -2 -2 -2 -2 -3 -4 -2 -1 -7 1 -1 -4 1 0 2 -1 -2 -0 2 -3 5 -3 2 -1 -3 1 -1 -0 0 2 0 -1 -2 1 2 -2 -1 -1 -1 5 -1 -2 -1 -2 -2 -2 -2 -3 -4 -2 1 2 0
-4 4 -4 -2 -2 -1 -1 -4 1 -1 -3 -5 -3 0 1 0 2 0 -1 1 0 -2 -0 0 -0 -0 -0 -2 2 -2 1 -2 -1 1 5 2 2 0 -6 -2 -4 -4 -1 -3 -2 -2 -0 0 -1 -0 -1 -1 -1 -0
-0 1 -2 -2 -1 -5 0 -3 1 -0 -0 1 0 -2 2 -0 2 1 4 5 4 -0 -0 1 0 -4 -0 1 2 -0 0 3 1 4 2 -2 1 -3 -5 -2 -1 -2 -3 -1 -0 -0 -2 -0 1 0 -0 -1 -1 -3
11 -9 -5 0 -5 -9 6 -4 -1 3 -0 3 -0 -2 0 -1 -2 -0 2 3 3 2 1 2 3 2 -1 -0 -0 3 -0 1 -0 -3 0 1 -3 -2 -2 -2 -0 0 -1 -1 0 -1 1 1 -1 0 -1 1 1 2
-0 -1 -2 -3 -2 -5 -1 -2 -2 1 0 -0 -2 2 -3 -5 -2 -3 0 -3 -1 -1 -4 -1 2 -0 -1 0 -0 2 -1 -2 1 2 1 2 -1 -7 -2 -2 1 1 -1 -0 -2 -4 -2 1 1 -0 0 -1 -1 -0
-3 -1 -0 -1 -2 3 -3 1 -6 1 1 2 -2 0 2 -2 -2 -2 -3 -3 -0 1 2 1 -0 2 1 2 -2 -3 0 -4 -2 1 3 3 1 -0 2 -3 -1 -2 -2 -0 5 5 -0 3 -0 0 2 2 -2 -1
-5 -3 -5 -2 6 0 2 -1 2 1 1 0 4 1 1 1 -0 -0 -4 4 2 -1 0 -1 4 -1 -2 -1 4 2 1 -4 -5 -8 -8 1 0 1 -1 2 -1 0 -1 -2 -2 3 0 -3 -1 -3 -1 -1 -1 -1
-4 -2 -4 -4 4 -1 0 -1 2 -7 2 4 -1 0 1 1 -1 -3 -2 6 -1 -9 -0 1 -2 1 1 -0 1 -3 -6 0 1 2 2 -0 -2 0 -1 -2 -0 -1 1 -1 -0 -4 -3 2 0 -2 -3 -2 -1 -1
-2 -4 -3 -1 1 1 -6 -1 2 1 2 -2 2 2 0 0 0 4 1 -3 -7 -5 -2 -1 1 -0 3 4 3 -3 -1 1 3 4 0 -3 -4 0 1 0 -1 1 -0 -1 2 -2 1 2 -2 -2 1 -1 -2 -0
-5 2 1 3 1 -0 -0 0 -0 1 2 1 1 -0 -1 -0 -2 2 -1 -2 -1 3 1 -5 -3 -1 4 8 5 -5 -3 -1 5 -2 2 0 0 4 -2 -2 -2 1 2 -1 -3 0 4 -0 2 4 3 -1 -2 -0
3 -0 2 0 -1 3 2 0 -0 1 -0 -1 2 -1 0 -1 1 1 -1 -1 3 3 -0 -2 -2 3 3 -1 6 7 -5 -4 -2 -3 2 -2 1 5 4 3 1 0 -3 -3 -2 -2 -1 2 1 1 -1 -1 -1 -0
3 0 1 -1 -0 2 -1 0 -0 -2 0 0 -1 -1 -0 1 2 -2 1 8 3 4 3 3 4 1 4 10 9 7 -4 -4 7 1 2 2 1 -5 -3 -4 -2 2 -1 -1 -1 -1 0 -1 -3 -1 -0 0 -1 -2
1 1 -2 -4 -0 -0 0 -0 -0 2 0 -0 -1 1 1 1 -1 4 2 0 -0 0 -1 -3 -4 0 3 2 3 4 -3 5 7 5 4 2 5 -1 -3 -9 -9 -6 -2 -1 0 0 0 -0 -2 -2 0 1 0 0
-4 2 -3 -1 1 1 -0 0 0 -1 -1 0 2 0 0 2 5 3 1 0 -1 -3 -2 -2 -1 -3 -5 -1 1 2 6 5 1 2 4 0 -1 -0 -2 -3 -3 2 -1 -2 -0 -0 -1 -1 -1 -1 -2 -1 1 1
2 -1 0 0 0 1 -1 -1 -1 1 -1 -0 1 -1 2 2 -1 -1 4 -1 -5 -4 -2 -1 -2 -2 -2 -2 -1 0 -1 4 4 1 1 -2 -2 -1 -1 0 0 -2 0 -0 -1 -0 0 0 0 1 -1 -0 0 0
3 -3 -0 0 -0 -1 -4 2 3 2 -2 2 -1 -10 -8 -5 4 7 2 -1 -2 0 -0 -2 -2 -1 -2 -5 -3 2 2 1 4 8 5 0 -7 -4 -2 0 1 -0 0 1 1 1 -0 -0 -1 -1 -1 -1 -1 -1
-2 -0 1 -0 -1 -1 3 0 -6 -6 -4 -2 -2 3 -6 -6 -12 -7 -6 -4 1 -3 -2 -0 -0 -1 1 1 -3 -5 -2 -2 -2 -2 1 3 5 1 -1 -2 -1 0 1 1 -0 -1 -1 -1 -2 -2 -2 -2 1 1
-0 -0 -2 -0 0 6 -6 -1 -1 1 -1 3 -3 4 1 5 -2 -8 6 1 2 -1 -0 -2 -3 -7 8 2 5 2 -3 -1 2 -0 3 2 1 2 2 -0 -2 -0 1 -1 -1 -1 0 1 -1 -2 1 -2 -2 -1
-0 -1 0 -1 -0 0 6 -2 -0 -1 0 0 -2 -0 -0 3 -0 7 -3 0 1 -1 0 1 -1 1 -3 -4 0 10 5 -2 -3 -4 -1 6 2 2 1 -1 -1 -1 1 1 -0 -1 -1 -2 -2 -0 -0 0 -3 -1
Height
1321 1315 1309 1301 1293 1286 1277 1267 1258 1256 1260 1264 1270 1277 1286 1294 1301 1309 1316 1321 1326 1328 1328 1329 1332 1334 1332 1332 1331 1328 1334 1337 1344 1348 1349 1358 1365 1368 1371 1369 1371 1378 1394 1397 1404 1407 1407 1380 1384 1390 1389 1392 1396 1399
1322 1318 1312 1306 1298 1289 1281 1272 1264 1261 1263 1266 1270 1277 1284 1292 1300 1310 1315 1319 1324 1328 1328 1330 1330 1330 1330 1332 1333 1325 1323 1333 1334 1335 1340 1345 1353 1351 1358 1369 1359 1370 1364 1376 1382 1384 1376 1378 1378 1384 1387 1392 1396 1399
1324 1320 1315 1309 1303 1295 1287 1277 1271 1265 1264 1267 1271 1277 1284 1291 1299 1307 1313 1318 1322 1324 1326 1327 1323 1326 1327 1328 1329 1328 1324 1327 1330 1332 1333 1338 1340 1343 1348 1350 1352 1358 1362 1369 1375 1371 1372 1377 1383 1384 1388 1393 1396 1399
1327 1322 1318 1312 1306 1300 1292 1284 1276 1266 1262 1269 1275 1281 1286 1293 1299 1306 1311 1312 1319 1324 1323 1323 1320 1321 1322 1321 1317 1314 1313 1320 1326 1328 1333 1336 1337 1340 1340 1341 1348 1353 1356 1364 1370 1368 1367 1374 1378 1383 1388 1390 1394 1399
1329 1325 1320 1315 1309 1304 1297 1290 1283 1274 1269 1275 1279 1283 1288 1294 1300 1305 1308 1312 1315 1322 1316 1317 1316 1316 1309 1308 1308 1307 1310 1315 1321 1328 1333 1335 1337 1337 1343 1345 1345 1346 1355 1360 1366 1366 1366 1372 1378 1383 1390 1394 1397 1400
1331 1327 1323 1318 1313 1307 1302 1296 1291 1285 1280 1277 1281 1285 1288 1294 1296 1303 1310 1310 1311 1313 1318 1314 1316 1316 1314 1310 1300 1301 1305 1311 1316 1326 1334 1336 1341 1345 1350 1355 1345 1345 1345 1354 1359 1365 1368 1374 1377 1385 1392 1394 1398 1403
1332 1329 1325 1321 1316 1312 1306 1302 1298 1295 1290 1286 1285 1286 1287 1291 1297 1301 1304 1302 1309 1314 1315 1317 1317 1315 1312 1309 1307 1308 1311 1317 1322 1327 1332 1333 1339 1342 1341 1342 1338 1343 1350 1356 1362 1365 1370 1375 1378 1384 1390 1396 1399 1403
1334 1330 1327 1324 1319 1315 1311 1306 1303 1300 1299 1296 1294 1293 1292 1293 1298 1300 1303 1304 1307 1309 1313 1313 1315 1315 1313 1310 1311 1313 1323 1326 1324 1331 1333 1332 1338 1341 1339 1335 1340 1347 1353 1357 1362 1367 1372 1375 1381 1388 1392 1394 1397 1402
1335 1331 1328 1325 1321 1317 1314 1310 1306 1305 1303 1301 1300 1300 1299 1300 1302 1304 1304 1306 1306 1311 1308 1307 1303 1312 1317 1317 1318 1320 1320 1323 1330 1332 1331 1330 1337 1336 1332 1333 1342 1350 1355 1361 1366 1369 1371 1376 1384 1388 1390 1392 1395 1399
1335 1332 1330 1327 1323 1319 1315 1311 1307 1306 1305 1304 1303 1302 1305 1307 1306 1306 1307 1307 1308 1308 1308 1306 1308 1311 1314 1314 1318 1321 1320 1324 1331 1334 1333 1334 1336 1334 1332 1337 1343 1352 1358 1362 1366 1369 1373 1378 1382 1385 1387 1390 1393 1396
1338 1335 1331 1328 1324 1320 1316 1312 1309 1307 1307 1307 1306 1305 1307 1306 1306 1303 1302 1303 1304 1308 1309 1312 1311 1313 1317 1317 1316 1318 1324 1323 1325 1334 1333 1334 1336 1335 1335 1340 1348 1355 1359 1363 1368 1371 1374 1376 1378 1382 1385 1388 1390 1393
1340 1336 1333 1329 1325 1321 1318 1315 1311 1309 1308 1308 1307 1305 1305 1304 1302 1302 1300 1299 1298 1305 1311 1313 1316 1318 1320 1321 1322 1324 1323 1324 1328 1331 1330 1329 1327 1334 1340 1346 1352 1357 1362 1365 1369 1371 1372 1372 1374 1378 1383 1386 1389 1391
1341 1338 1334 1330 1326 1322 1319 1316 1314 1311 1309 1308 1309 1308 1308 1308 1306 1301 1305 1299 1302 1304 1308 1312 1316 1321 1323 1321 1323 1321 1325 1328 1327 1331 1326 1320 1327 1334 1341 1347 1353 1357 1361 1364 1366 1367 1368 1370 1372 1376 1381 1383 1386 1389
1341 1337 1334 1330 1326 1323 1319 1316 1314 1312 1311 1311 1310 1313 1311 1311 1315 1316 1314 1311 1311 1309 1310 1313 1316 1318 1321 1325 1325 1326 1329 1327 1327 1327 1320 1325 1330 1336 1342 1348 1352 1356 1359 1362 1364 1367 1368 1370 1372 1376 1379 1382 1385 1388
1340 1337 1333 1330 1326 1322 1320 1317 1315 1314 1314 1314 1314 1315 1318 1324 1323 1321 1320 1317 1316 1315 1316 1318 1318 1319 1322 1327 1324 1330 1333 1329 1323 1316 1319 1324 1331 1337 1343 1348 1352 1354 1358 1362 1364 1367 1369 1372 1374 1376 1378 1380 1382 1385
1341 1337 1335 1330 1326 1322 1319 1318 1318 1317 1318 1319 1320 1319 1320 1320 1322 1322 1321 1319 1319 1319 1320 1320 1319 1322 1323 1323 1324 1325 1323 1319 1316 1320 1323 1328 1334 1338 1344 1349 1352 1356 1359 1363 1365 1368 1370 1372 1374 1376 1378 1380 1381 1383
1340 1339 1334 1330 1325 1322 1321 1320 1320 1319 1319 1319 1324 1325 1324 1323 1323 1323 1322 1321 1321 1321 1321 1318 1319 1318 1318 1318 1316 1314 1315 1319 1325 1328 1331 1334 1336 1340 1347 1351 1353 1356 1360 1363 1365 1368 1370 1372 1374 1375 1377 1379 1382 1384
1340 1337 1333 1329 1325 1322 1323 1322 1321 1320 1320 1322 1323 1325 1324 1325 1325 1324 1323 1323 1322 1322 1321 1320 1319 1318 1319 1317 1312 1320 1325 1327 1329 1331 1333 1335 1339 1343 1348 1351 1354 1357 1359 1362 1365 1367 1369 1371 1373 1375 1378 1380 1382 1384
1337 1334 1332 1330 1327 1325 1325 1324 1324 1321 1323 1323 1324 1324 1325 1325 1325 1325 1325 1325 1325 1325 1326 1323 1320 1316 1315 1317 1320 1323 1326 1328 1330 1333 1335 1338 1341 1345 1349 1352 1354 1356 1359 1361 1364 1367 1369 1372 1373 1375 1377 1378 1381 1382
1336 1333 1330 1329 1328 1327 1326 1325 1324 1322 1320 1323 1323 1323 1323 1325 1325 1326 1326 1326 1326 1325 1324 1321 1317 1318 1319 1320 1321 1322 1325 1328 1330 1333 1336 1340 1342 1346 1348 1351 1353 1355 1359 1362 1365 1367 1369 1370 1372 1375 1377 1377 1378 1381
1335 1332 1329 1328 1328 1327 1326 1324 1323 1323 1322 1322 1321 1322 1322 1324 1325 1325 1325 1325 1326 1325 1319 1317 1317 1319 1320 1320 1321 1322 1324 1327 1329 1332 1335 1339 1342 1345 1348 1351 1354 1356 1358 1361 1364 1365 1367 1369 1372 1373 1374 1376 1377 1379
1334 1332 1330 1328 1328 1326 1325 1323 1323 1324 1324 1320 1321 1321 1319 1321 1321 1321 1321 1322 1321 1318 1318 1319 1319 1319 1319 1321 1322 1323 1324 1327 1329 1331 1334 1338 1341 1343 1346 1349 1352 1355 1357 1359 1361 1363 1365 1367 1369 1371 1373 1375 1376 1377
1332 1331 1330 1329 1328 1326 1325 1322 1322 1320 1320 1319 1317 1316 1314 1315 1315 1316 1315 1314 1314 1314 1316 1317 1317 1318 1319 1320 1322 1324 1325 1327 1328 1331 1333 1336 1339 1342 1345 1347 1350 1352 1354 1356 1359 1361 1364 1366 1368 1370 1371 1372 1373 1375
1329 1330 1329 1326 1325 1323 1323 1321 1319 1317 1316 1317 1314 1312 1309 1311 1315 1315 1310 1307 1309 1311 1313 1314 1316 1317 1318 1319 1321 1322 1324 1326 1328 1330 1332 1335 1338 1341 1343 1345 1348 1350 1353 1355 1358 1360 1362 1364 1366 1368 1368 1369 1371 1372
1331 1328 1328 1322 1322 1322 1320 1316 1315 1312 1313 1312 1309 1308 1306 1310 1311 1310 1307 1304 1308 1310 1312 1313 1314 1315 1316 1318 1319 1321 1323 1325 1326 1328 1331 1333 1336 1339 1342 1344 1346 1349 1351 1353 1356 1358 1360 1362 1363 1364 1365 1366 1368 1370
1324 1321 1321 1316 1317 1317 1313 1313 1314 1313 1310 1310 1310 1307 1307 1307 1308 1304 1301 1309 1310 1313 1314 1314 1314 1315 1315 1316 1317 1318 1320 1322 1324 1326 1329 1331 1333 1335 1338 1341 1344 1347 1349 1351 1353 1355 1356 1358 1360 1361 1363 1364 1365 1367
1315 1313 1315 1316 1317 1317 1316 1314 1314 1313 1313 1310 1307 1306 1307 1307 1301 1306 1312 1313 1314 1314 1315 1315 1315 1315 1315 1315 1316 1317 1318 1320 1322 1324 1326 1329 1331 1333 1335 1338 1340 1343 1345 1347 1349 1351 1352 1354 1356 1358 1360 1361 1362 1363
1309 1308 1312 1314 1315 1316 1316 1315 1314 1312 1309 1310 1310 1308 1305 1302 1307 1314 1315 1315 1315 1315 1315 1315 1314 1315 1315 1315 1315 1316 1317 1318 1319 1321 1323 1326 1328 1330 1333 1335 1338 1340 1342 1343 1345 1346 1348 1350 1352 1354 1356 1357 1359 1360
1305 1307 1310 1314 1316 1315 1316 1315 1313 1310 1312 1313 1312 1309 1307 1311 1313 1314 1315 1314 1314 1314 1314 1314 1314 1313 1313 1313 1313 1314 1315 1316 1317 1317 1319 1321 1324 1327 1328 1331 1333 1335 1337 1339 1341 1343 1344 1347 1348 1350 1352 1354 1355 1356
1302 1305 1308 1312 1314 1313 1312 1312 1312 1313 1313 1314 1314 1313 1312 1311 1312 1312 1312 1312 1312 1312 1312 1311 1311 1310 1310 1311 1311 1311 1311 1312 1313 1314 1315 1316 1317 1321 1324 1326 1328 1330 1333 1335 1337 1339 1341 1343 1344 1346 1347 1349 1350 1352
1303 1305 1306 1308 1309 1310 1311 1311 1312 1312 1311 1311 1311 1311 1310 1309 1307 1306 1306 1305 1306 1306 1307 1306 1306 1306 1306 1306 1307 1307 1307 1308 1309 1310 1311 1313 1314 1316 1318 1320 1323 1325 1328 1330 1332 1334 1337 1339 1340 1342 1344 1346 1348 1349
1304 1304 1306 1307 1309 1310 1311 1310 1309 1308 1306 1305 1304 1304 1305 1305 1303 1302 1301 1300 1301 1301 1302 1302 1301 1301 1302 1300 1301 1301 1302 1303 1304 1305 1306 1308 1309 1311 1313 1316 1318 1321 1324 1326 1328 1331 1333 1336 1338 1340 1341 1343 1344 1346
1305 1306 1306 1308 1309 1308 1309 1310 1308 1305 1303 1302 1301 1301 1301 1302 1301 1300 1298 1298 1298 1298 1298 1297 1297 1296 1295 1295 1296 1296 1297 1297 1299 1301 1302 1303 1305 1307 1309 1311 1314 1316 1319 1321 1323 1326 1329 1331 1334 1336 1338 1339 1341 1342